Ozark, AL

1:30 AM CDT on April 27, 2017 (GMT -0500)
Cairns Army Air Field

Weather History for KOZR - May, 2014

Change the Weather History Date:

Sunday, May 18, 2014

  Actual Average Record
Temperature  
Mean Temperature 72 °F -  
Max Temperature 84 °F 82 °F 93 °F (1998)
Min Temperature 59 °F 60 °F 44 °F (2011)
Cooling Degree Days 6    
Growing Degree Days 22 (Base 50)    
Moisture  
Dew Point 58 °F    
Average Humidity 69    
Maximum Humidity 100    
Minimum Humidity 33    
Precipitation  
Precipitation 0.00 in - - ()
Sea Level Pressure  
Sea Level Pressure 30.17 in    
Wind  
Wind Speed 4 mph (WSW)    
Max Wind Speed 9 mph    
Max Gust Speed -    
Visibility 9 miles    
Events      
Averages and records for this station are not official NWS values.
T = Trace of Precipitation, MM = Missing Value Source: NWS Daily Summary

Daily Weather History Graph

Daily Weather History Graph

Search for Another Location

Airport or City:

Trip Planner

Search our weather history database for the weather conditions in past years. The results will help you decide how hot, cold, wet, or windy it might be!

Date:

Astronomy

May. 18, 2014 Rise Set
Actual Time 5:45 AM CDT 7:33 PM CDT
Civil Twilight 5:18 AM CDT 8:00 PM CDT
Nautical Twilight 4:46 AM CDT 8:33 PM CDT
Astronomical Twilight 4:11 AM CDT 9:07 PM CDT
Moon 11:26 PM CDT (5/18) 9:30 AM CDT (5/18)
Length of Visible Light 14h 42m
Length of Day
13h 48m
Waning Gibbous, 81% of the Moon is Illuminated
May 18
Waning Gibbous
May 21
Last Quarter
May 28
New
Jun 5
First Quarter
Jun 12
Full

Hourly Weather History & Observations

Time (CDT) Temp. Heat Index Dew Point Humidity Pressure Visibility Wind Dir Wind Speed Gust Speed Precip Events Conditions
12:58 AM 63.1 °F - 59.9 °F 89% 30.17 in 10.0 mi SSW 4.6 mph - N/A   Clear
1:58 AM 62.1 °F - 59.7 °F 92% 30.15 in 10.0 mi South 2.3 mph - N/A   Clear
2:58 AM 60.4 °F - 59.0 °F 95% 30.16 in 10.0 mi SE 2.3 mph - N/A   Clear
3:58 AM 60.1 °F - 59.0 °F 96% 30.17 in 10.0 mi SSE 2.3 mph - N/A   Clear
4:58 AM 60.3 °F - 59.4 °F 97% 30.18 in 9.0 mi South 2.3 mph - N/A   Clear
5:58 AM 59.0 °F - 59.0 °F 100% 30.19 in 1.5 mi SSW 1.2 mph - N/A   Clear
6:03 AM 59.0 °F - 59.0 °F 100% 30.19 in 1.2 mi WSW 1.2 mph - N/A   Clear
6:08 AM 60.8 °F - 59.0 °F 94% 30.19 in 2.0 mi SW 1.2 mph - N/A   Clear
6:13 AM 60.8 °F - 59.0 °F 94% 30.19 in 3.0 mi SW 2.3 mph - N/A   Clear
6:58 AM 63.0 °F - 61.9 °F 96% 30.18 in 10.0 mi SSW 8.1 mph - N/A   Clear
7:58 AM 67.1 °F - 62.4 °F 85% 30.20 in 10.0 mi WSW 5.8 mph - N/A   Clear
8:58 AM 72.5 °F - 61.9 °F 69% 30.20 in 10.0 mi NW 5.8 mph - N/A   Clear
9:58 AM 76.1 °F - 60.1 °F 57% 30.20 in 10.0 mi West 5.8 mph - N/A   Clear
10:58 AM 77.9 °F - 57.2 °F 49% 30.19 in 10.0 mi WNW 8.1 mph - N/A   Clear
11:58 AM 79.7 °F - 55.4 °F 43% 30.19 in 10.0 mi West 6.9 mph - N/A   Clear
12:58 PM 81.3 °F 81.1 °F 56.5 °F 42% 30.17 in 10.0 mi SW 9.2 mph - N/A   Scattered Clouds
1:58 PM 80.6 °F 80.6 °F 56.1 °F 43% 30.16 in 10.0 mi West 3.5 mph - N/A   Mostly Cloudy
2:58 PM 81.9 °F 81.2 °F 54.9 °F 39% 30.15 in 10.0 mi Variable 2.3 mph - N/A   Clear
3:58 PM 84.2 °F - 51.8 °F 33% 30.13 in 10.0 mi SSW 5.8 mph - N/A   Clear
4:58 PM 82.9 °F 82.1 °F 55.6 °F 39% 30.13 in 10.0 mi West 5.8 mph - N/A   Scattered Clouds
5:58 PM 82.0 °F 81.4 °F 54.9 °F 39% 30.13 in 10.0 mi West 2.3 mph - N/A   Clear
6:58 PM 80.4 °F 80.4 °F 55.0 °F 42% 30.13 in 10.0 mi NW 3.5 mph - N/A   Clear
7:58 PM 76.6 °F - 56.7 °F 50% 30.14 in 10.0 mi North 2.3 mph - 0.00 in   Clear
8:58 PM 72.7 °F - 57.4 °F 59% 30.14 in 10.0 mi North 1.2 mph - N/A   Clear
9:58 PM 70.0 °F - 60.1 °F 71% 30.16 in 10.0 mi WSW 4.6 mph - N/A   Clear
10:58 PM 68.0 °F - 60.6 °F 77% 30.16 in 10.0 mi Calm Calm - N/A   Clear
11:58 PM 66.2 °F - 60.4 °F 82% 30.17 in 10.0 mi Calm Calm - N/A   Clear